Terminal Aerodrome Forecast
Issued by NWS Blacksburg, VA

Home | Current Version | Previous Version | Text Only | Print | Product List | Glossary On
Versions: 1 2 3 4 5 6 7 8 9 10 11 12 13 14 15 16 17 18 19 20 21 22 23 24 25 26
000
FTUS41 KRNK 022326
TAFDAN
TAF
KDAN 022326Z 0300/0324 25005KT P6SM VCSH SCT040 BKN060
     FM030600 00000KT 6SM BR SCT060 BKN110
     FM031400 VRB03KT P6SM SCT050 BKN120
     FM031900 25005KT P6SM VCTS BKN060CB
      AMD NOT SKED=

USA.gov is the U.S. government's official web portal to all federal, state and local government web resources and services.